FW2430 Weather Reports


time (UTC)temp
C
wind
direction
speed
KPH
gust
KPH
rain 1hr
cm
rain 24hr
cm
rain mn
cm
humidity
%
barometer
mb
20191019141635 6 103 1.6 11.3 0.00 0.00 0.00 92 1017.9
20191019140004 6 53 1.6 8.0 0.00 0.00 0.00 94 1017.9
20191019134725 5 141 3.2 9.7 0.00 0.00 0.00 95 1018.1
20191019133056 4 91 1.6 6.4 0.00 0.00 0.00 95 1018.2
20191019130103 3 78 0.0 4.8 0.00 0.00 0.00 95 1018.0
20191019123208 2 61 0.0 4.8 0.00 0.00 0.00 95 1018.1
20191019121532 2 55 0.0 4.8 0.00 0.00 0.00 95 1017.9
20191019114714 2 69 0.0 3.2 0.00 0.00 0.00 95 1017.8
20191019111652 2 33 0.0 4.8 0.00 0.00 0.00 95 1017.9
20191019110024 2 34 0.0 4.8 0.00 0.00 0.00 95 1018.0
20191019103107 2 135 0.0 3.2 0.00 0.00 0.00 95 1017.9
20191019094634 2 346 0.0 3.2 0.00 0.00 0.00 95 1017.8
20191019091732 2 323 0.0 1.6 0.00 0.00 0.00 95 1018.1
20191019090101 2 287 0.0 3.2 0.00 0.00 0.00 95 1018.0
20191019083135 2 294 0.0 0.0 0.00 0.00 0.00 95 1018.1
20191019081503 2 294 0.0 0.0 0.00 0.00 0.00 95 1018.1
20191019074616 2 294 0.0 0.0 0.00 0.00 0.00 94 1018.2
20191019073027 2 294 0.0 0.0 0.00 0.00 0.00 95 1018.1
20191019070105 1 294 0.0 0.0 0.00 0.00 0.00 94 1018.1
20191019064523 1 294 0.0 0.0 0.00 0.00 0.00 94 1018.2
20191019061556 1 294 0.0 0.0 0.00 0.00 0.00 94 1017.9
20191019054658 1 294 0.0 0.0 0.00 0.00 0.00 94 1017.7
20191019053027 1 294 0.0 0.0 0.00 0.00 0.00 94 1017.7
20191019050114 1 294 0.0 0.0 0.00 0.00 0.00 94 1017.7
20191019043132 1 294 0.0 0.0 0.00 0.00 0.00 94 1017.7
20191019040117 1 294 0.0 0.0 0.00 0.00 0.00 93 1017.9
20191019034627 1 294 0.0 0.0 0.00 0.00 0.00 94 1018.1
20191019033024 1 294 0.0 0.0 0.00 0.00 0.00 93 1018.2
20191019030121 2 294 0.0 0.0 0.00 0.00 0.00 93 1018.1
20191019024504 2 294 0.0 0.0 0.00 0.00 0.00 93 1018.2
20191019023226 2 294 0.0 0.0 0.00 0.00 0.00 93 1018.2
20191019021555 2 294 0.0 0.0 0.00 0.00 0.00 93 1018.4
20191019014644 2 294 0.0 0.0 0.00 0.00 0.00 93 1018.3
20191019013039 2 294 0.0 0.0 0.00 0.00 0.00 92 1018.2
20191019010104 3 294 0.0 0.0 0.00 0.00 0.00 91 1018.0
20191019004516 3 294 0.0 0.0 0.00 0.00 0.00 91 1018.0
20191019001833 3 294 0.0 0.0 0.00 0.00 0.00 90 1018.0
20191019000043 4 294 0.0 0.0 0.00 0.00 0.00 89 1018.0
20191018233111 5 294 0.0 0.0 0.00 0.00 0.00 87 1017.7
20191018230108 6 294 0.0 0.0 0.00 0.00 0.00 84 1017.6
20191018223238 8 294 0.0 0.0 0.00 0.00 0.00 78 1017.6
20191018221558 9 294 0.0 0.0 0.00 0.00 0.00 76 1017.6
20191018214656 10 310 0.0 4.8 0.00 0.00 0.00 72 1017.7
20191018213109 11 309 3.2 6.4 0.00 0.00 0.00 69 1017.7
20191018210154 11 315 1.6 9.7 0.00 0.00 0.00 66 1017.6
20191018204619 11 55 1.6 8.0 0.00 0.00 0.00 66 1017.7
20191018201704 11 349 9.7 14.5 0.00 0.00 0.00 65 1017.9
20191018200043 11 70 4.8 9.7 0.00 0.00 0.00 70 1017.9
20191018193142 11 296 1.6 9.7 0.00 0.00 0.00 69 1018.0
20191018191507 10 239 4.8 11.3 0.00 0.00 0.00 72 1018.0
20191018184614 10 269 6.4 16.1 0.00 0.00 0.00 72 1018.2
20191018181633 11 264 3.2 16.1 0.00 0.00 0.00 71 1018.2
20191018180033 11 307 4.8 14.5 0.00 0.00 0.00 70 1018.1
20191018173148 10 339 4.8 14.5 0.00 0.00 0.00 74 1018.4
20191018171512 10 242 4.8 16.1 0.00 0.00 0.00 76 1018.5
20191018164549 9 306 4.8 9.7 0.00 0.00 0.00 80 1018.5
20191018161702 8 271 3.2 9.7 0.00 0.00 0.00 81 1018.5
20191018160013 8 290 3.2 11.3 0.00 0.00 0.00 80 1018.4
20191018153134 8 262 4.8 12.9 0.00 0.00 0.00 80 1018.4
20191018150145 8 266 4.8 11.3 0.00 0.00 0.00 81 1018.6
20191018144531 8 277 4.8 9.7 0.00 0.00 0.00 81 1018.5